Find Starlink 36982

NORAD ID: 68278 Int'l Des: 2026-055 Owner: SPXS Country: US Constellation: starlink operational
LEOCIRCULAR

Current View

Loading 3D Globe...

About Starlink 36982

Starlink 36982 (NORAD 68278) is a starlink constellation satellite (v2 mini) launched Mar 19, 2026 by SPXS of US. It operates in LEO, CIRCULAR orbit with a mass of 575.00 kg.

About Starlink 36982

Description loading...

Upcoming Passes

Passes for default location (London). Set your location on the main map for personalized predictions.

Altitude History

Loading altitude history...

Two-Line Element Set

1 68278U 26055S 26168.41690889 .00014616 00000-0 44272-3 0 9997
2 68278 53.1568 214.3446 0001134 74.9513 285.1615 15.34410012 15222
Epoch: Jun 17, 2026 • Age: 30 hours

Current Status

Altitude 462.7 km
Velocity 7.64 km/s
Sub-Earth Point 16.66°N, 137.34°W
Launch Date Mar 19, 2026
Age 0.2 years
Type internet

Technical Details

Classification Payload
Mass 575.00 kg
Dry Mass 530.00 kg
Total Mass 575.00 kg
Length 0.30 m
Diameter 4.10 m
Span 29.00 m
Shape Box + pan
Manufacturer SPXS
Bus Type Starlink V2MO
Phase Status In Orbit
Owner/State SPXS/US

Most Searched